| time (UTC) | temp C | wind direction | speed KPH | gust KPH | rain 1hr cm | rain 24hr cm | rain mn cm | humidity % | barometer mb |
| 20260507170040 | 13 | 301 | 3.2 | 20.9 | 0.00 | 0.00 | 0.00 | 49 | 1016.0 |
| 20260507164543 | 14 | 321 | 6.4 | 16.1 | 0.00 | 0.00 | 0.00 | 45 | 1016.1 |
| 20260507163043 | 13 | 296 | 1.6 | 11.3 | 0.00 | 0.00 | 0.00 | 48 | 1016.2 |
| 20260507161543 | 13 | 313 | 3.2 | 14.5 | 0.00 | 0.00 | 0.00 | 48 | 1016.3 |
| 20260507160048 | 13 | 272 | 1.6 | 11.3 | 0.00 | 0.00 | 0.00 | 47 | 1016.3 |
| 20260507154542 | 12 | 327 | 4.8 | 16.1 | 0.00 | 0.00 | 0.00 | 50 | 1016.2 |
| 20260507153044 | 12 | 291 | 3.2 | 12.9 | 0.00 | 0.00 | 0.00 | 49 | 1016.2 |
| 20260507151535 | 12 | 301 | 3.2 | 12.9 | 0.00 | 0.00 | 0.00 | 49 | 1016.1 |
| 20260507150035 | 12 | 333 | 1.6 | 16.1 | 0.00 | 0.00 | 0.00 | 51 | 1016.2 |
| 20260507144543 | 11 | 335 | 1.6 | 16.1 | 0.00 | 0.00 | 0.00 | 54 | 1016.0 |
| 20260507143048 | 11 | 298 | 3.2 | 11.3 | 0.00 | 0.00 | 0.00 | 55 | 1016.1 |
| 20260507141544 | 10 | 30 | 3.2 | 12.9 | 0.00 | 0.00 | 0.00 | 59 | 1016.2 |
| 20260507140039 | 10 | 27 | 6.4 | 16.1 | 0.00 | 0.00 | 0.00 | 58 | 1016.3 |
| 20260507134535 | 9 | 313 | 0.0 | 8.0 | 0.00 | 0.00 | 0.00 | 61 | 1016.3 |
| 20260507133033 | 8 | 292 | 1.6 | 17.7 | 0.00 | 0.00 | 0.00 | 63 | 1016.2 |
| 20260507131541 | 8 | 0 | 1.6 | 14.5 | 0.00 | 0.00 | 0.00 | 66 | 1016.1 |
| 20260507130051 | 8 | 351 | 6.4 | 14.5 | 0.00 | 0.00 | 0.00 | 68 | 1016.1 |
| 20260507124557 | 7 | 0 | 3.2 | 12.9 | 0.00 | 0.00 | 0.00 | 73 | 1016.1 |
| 20260507123040 | 6 | 350 | 4.8 | 14.5 | 0.00 | 0.00 | 0.00 | 81 | 1016.3 |
| 20260507121537 | 5 | 0 | 1.6 | 6.4 | 0.00 | 0.00 | 0.00 | 90 | 1016.3 |
| 20260507120034 | 4 | 355 | 0.0 | 3.2 | 0.00 | 0.00 | 0.00 | 92 | 1016.2 |
| 20260507114558 | 3 | 0 | 0.0 | 0.0 | 0.00 | 0.00 | 0.00 | 92 | 1016.2 |
| 20260507113040 | 3 | 0 | 0.0 | 1.6 | 0.00 | 0.00 | 0.00 | 92 | 1016.1 |
| 20260507111541 | 3 | 0 | 0.0 | 0.0 | 0.00 | 0.00 | 0.00 | 92 | 1016.2 |
| 20260507110044 | 2 | 0 | 0.0 | 0.0 | 0.00 | 0.00 | 0.00 | 92 | 1016.0 |
| 20260507104534 | 2 | 0 | 0.0 | 0.0 | 0.00 | 0.00 | 0.00 | 91 | 1015.6 |
| 20260507103041 | 2 | 0 | 0.0 | 0.0 | 0.00 | 0.00 | 0.00 | 91 | 1015.6 |
| 20260507101536 | 3 | 0 | 0.0 | 0.0 | 0.00 | 0.00 | 0.00 | 91 | 1015.7 |
| 20260507100045 | 3 | 0 | 0.0 | 1.6 | 0.00 | 0.00 | 0.00 | 91 | 1015.5 |
| 20260507094543 | 3 | 0 | 0.0 | 0.0 | 0.00 | 0.00 | 0.00 | 91 | 1015.5 |
| 20260507093042 | 3 | 0 | 0.0 | 0.0 | 0.00 | 0.00 | 0.00 | 91 | 1015.6 |
| 20260507091540 | 3 | 0 | 0.0 | 0.0 | 0.00 | 0.00 | 0.00 | 91 | 1015.4 |
| 20260507090034 | 3 | 0 | 0.0 | 0.0 | 0.00 | 0.00 | 0.00 | 91 | 1015.4 |
| 20260507084542 | 3 | 0 | 0.0 | 0.0 | 0.00 | 0.03 | 0.00 | 91 | 1015.1 |
| 20260507083042 | 4 | 0 | 0.0 | 0.0 | 0.00 | 0.03 | 0.00 | 90 | 1015.1 |
| 20260507081541 | 4 | 0 | 0.0 | 0.0 | 0.00 | 0.03 | 0.00 | 90 | 1015.0 |
| 20260507080038 | 4 | 0 | 0.0 | 0.0 | 0.00 | 0.03 | 0.00 | 90 | 1014.9 |
| 20260507074538 | 5 | 0 | 0.0 | 0.0 | 0.00 | 0.15 | 0.00 | 90 | 1015.0 |
| 20260507073042 | 5 | 0 | 0.0 | 0.0 | 0.00 | 0.15 | 0.00 | 90 | 1015.0 |
| 20260507071545 | 5 | 0 | 0.0 | 0.0 | 0.00 | 0.15 | 0.00 | 90 | 1014.9 |
| 20260507070052 | 5 | 0 | 0.0 | 0.0 | 0.00 | 0.15 | 0.00 | 89 | 1014.9 |
| 20260507064540 | 5 | 0 | 0.0 | 0.0 | 0.00 | 0.36 | 0.00 | 89 | 1015.1 |
| 20260507063053 | 5 | 0 | 0.0 | 0.0 | 0.00 | 0.36 | 0.00 | 89 | 1015.1 |
| 20260507061536 | 6 | 0 | 0.0 | 0.0 | 0.00 | 0.36 | 0.00 | 89 | 1015.2 |
| 20260507060043 | 6 | 0 | 0.0 | 0.0 | 0.00 | 0.36 | 0.00 | 88 | 1015.1 |
| 20260507054544 | 6 | 0 | 0.0 | 0.0 | 0.00 | 0.64 | 0.00 | 88 | 1015.2 |
| 20260507053042 | 6 | 0 | 0.0 | 0.0 | 0.00 | 0.64 | 0.00 | 88 | 1015.2 |
| 20260507051541 | 6 | 0 | 0.0 | 0.0 | 0.00 | 0.64 | 0.00 | 87 | 1015.3 |
| 20260507050039 | 7 | 0 | 0.0 | 0.0 | 0.00 | 0.64 | 0.00 | 87 | 1015.3 |
| 20260507044544 | 7 | 0 | 0.0 | 0.0 | 0.00 | 0.81 | 0.00 | 86 | 1015.3 |
| 20260507043042 | 7 | 0 | 0.0 | 0.0 | 0.00 | 0.81 | 0.00 | 86 | 1015.3 |
| 20260507041542 | 7 | 0 | 0.0 | 0.0 | 0.00 | 0.81 | 0.00 | 86 | 1015.2 |
| 20260507040041 | 8 | 0 | 0.0 | 0.0 | 0.00 | 0.81 | 0.00 | 85 | 1015.2 |
| 20260507034542 | 8 | 0 | 0.0 | 0.0 | 0.00 | 0.86 | 0.81 | 85 | 1015.1 |
| 20260507033035 | 8 | 0 | 0.0 | 0.0 | 0.00 | 0.86 | 0.81 | 85 | 1015.2 |
| 20260507031534 | 8 | 0 | 0.0 | 0.0 | 0.00 | 0.86 | 0.81 | 84 | 1015.2 |
| 20260507030043 | 8 | 0 | 0.0 | 0.0 | 0.00 | 0.86 | 0.81 | 83 | 1015.3 |
| 20260507024541 | 8 | 0 | 0.0 | 0.0 | 0.00 | 0.89 | 0.81 | 82 | 1015.4 |
| 20260507023040 | 8 | 0 | 0.0 | 0.0 | 0.00 | 0.89 | 0.81 | 81 | 1015.1 |
| 20260507021538 | 9 | 0 | 0.0 | 0.0 | 0.00 | 0.89 | 0.81 | 79 | 1015.2 |
| 20260507020042 | 10 | 0 | 0.0 | 0.0 | 0.00 | 0.89 | 0.81 | 78 | 1015.0 |
| 20260507014551 | 10 | 0 | 0.0 | 0.0 | 0.00 | 1.02 | 0.81 | 77 | 1014.9 |
| 20260507013047 | 11 | 0 | 0.0 | 0.0 | 0.00 | 1.02 | 0.81 | 75 | 1014.7 |
| 20260507011540 | 11 | 0 | 0.0 | 0.0 | 0.00 | 1.02 | 0.81 | 73 | 1014.5 |
| 20260507010052 | 11 | 0 | 0.0 | 0.0 | 0.00 | 1.02 | 0.81 | 70 | 1014.4 |
| 20260507004540 | 12 | 0 | 0.0 | 0.0 | 0.00 | 1.17 | 0.81 | 67 | 1014.4 |
| 20260507003035 | 12 | 0 | 0.0 | 1.6 | 0.00 | 1.17 | 0.81 | 65 | 1014.5 |
| 20260507001535 | 12 | 332 | 0.0 | 4.8 | 0.00 | 1.17 | 0.81 | 65 | 1014.2 |
| 20260507000034 | 13 | 0 | 1.6 | 9.7 | 0.00 | 1.17 | 0.81 | 62 | 1014.1 |
| 20260506234537 | 13 | 355 | 4.8 | 14.5 | 0.00 | 1.22 | 0.81 | 61 | 1013.9 |
| 20260506233055 | 13 | 0 | 1.6 | 12.9 | 0.00 | 1.22 | 0.81 | 59 | 1013.9 |
| 20260506231542 | 13 | 335 | 1.6 | 12.9 | 0.00 | 1.22 | 0.81 | 59 | 1013.8 |
| 20260506230038 | 13 | 17 | 3.2 | 14.5 | 0.00 | 1.22 | 0.81 | 58 | 1013.5 |
| 20260506224535 | 14 | 0 | 0.0 | 6.4 | 0.00 | 1.22 | 0.81 | 60 | 1013.6 |
| 20260506223041 | 14 | 0 | 1.6 | 8.0 | 0.00 | 1.22 | 0.81 | 59 | 1013.7 |
| 20260506221545 | 14 | 26 | 1.6 | 9.7 | 0.00 | 1.22 | 0.81 | 58 | 1013.9 |
| 20260506220042 | 14 | 304 | 0.0 | 9.7 | 0.00 | 1.22 | 0.81 | 58 | 1014.1 |
| 20260506214540 | 14 | 15 | 1.6 | 8.0 | 0.00 | 1.24 | 0.81 | 56 | 1014.1 |
| 20260506213036 | 14 | 284 | 0.0 | 6.4 | 0.00 | 1.24 | 0.81 | 56 | 1013.9 |
| 20260506211535 | 14 | 329 | 3.2 | 11.3 | 0.00 | 1.24 | 0.81 | 55 | 1013.8 |
| 20260506210041 | 14 | 345 | 3.2 | 20.9 | 0.00 | 1.24 | 0.81 | 57 | 1013.6 |
| 20260506204541 | 15 | 338 | 3.2 | 16.1 | 0.00 | 1.45 | 0.81 | 54 | 1013.6 |
| 20260506203041 | 15 | 5 | 1.6 | 8.0 | 0.00 | 1.45 | 0.81 | 55 | 1013.5 |
| 20260506201541 | 14 | 360 | 6.4 | 14.5 | 0.00 | 1.45 | 0.81 | 58 | 1013.8 |
| 20260506200044 | 14 | 330 | 4.8 | 12.9 | 0.00 | 1.45 | 0.81 | 58 | 1013.8 |
| 20260506194544 | 15 | 309 | 3.2 | 14.5 | 0.00 | 1.75 | 0.81 | 58 | 1013.8 |
| 20260506193034 | 14 | 326 | 4.8 | 17.7 | 0.00 | 1.75 | 0.81 | 59 | 1013.6 |
| 20260506191534 | 15 | 344 | 6.4 | 16.1 | 0.00 | 1.75 | 0.81 | 56 | 1013.2 |
| 20260506190040 | 15 | 14 | 4.8 | 14.5 | 0.00 | 1.75 | 0.81 | 56 | 1013.2 |
| 20260506184540 | 16 | 5 | 1.6 | 12.9 | 0.00 | 1.75 | 0.81 | 56 | 1013.1 |
| 20260506183037 | 16 | 282 | 4.8 | 16.1 | 0.00 | 1.75 | 0.81 | 54 | 1013.1 |
| 20260506181540 | 15 | 40 | 6.4 | 14.5 | 0.00 | 1.75 | 0.81 | 54 | 1013.2 |
| 20260506180044 | 15 | 346 | 1.6 | 14.5 | 0.00 | 1.75 | 0.81 | 58 | 1013.3 |
| 20260506174541 | 15 | 348 | 6.4 | 16.1 | 0.00 | 1.75 | 0.81 | 58 | 1013.5 |
| 20260506173045 | 14 | 80 | 3.2 | 14.5 | 0.00 | 1.75 | 0.81 | 60 | 1013.7 |
| 20260506171548 | 13 | 340 | 3.2 | 14.5 | 0.00 | 1.75 | 0.81 | 63 | 1013.6 |